Погода в Беляковском

Россия / Курганская область     55°38′42″N   68°05′55″E
темп.,
°C
ветер,
м/с
пор.,
м/с
влажн.,
%
обл.,
%
осадки,
мм/ч
давл.,
гПа
погр.,
м
17 апреля, сб
сб1723:00+2св410630 0.0 1027266
02:000св37730 0.0 1027176
05:000в23760 0.0 102857
08:00+3ю23684 0.0 1028349
11:00+6зюз33505 0.0 10261238
14:00+8зюз45405 0.0 10241631
17:00+9з574038 0.0 10221806
20:00+7зюз355642 0.0 102078
18 апреля, вс
вс1823:00+5зюз476520 0.0 1018110
02:00+3зюз411777 0.0 1016225
05:00+3зюз5138298 0.0 1014276
08:00+6з7136767 0.0 1012802
11:00+7сз9126199 0.0 10121648
14:00+3с101248100 0.3 10181546
17:00+1с9114093 0.3 10221922
20:00−2с810440 0.0 10261126
19 апреля, пн
пн1923:00−4ссв710440 0.0 10291133
02:00−6с69430 0.0 10311108
05:00−7ссв68440 0.0 10331057
08:00−6ссв68385 0.0 10341288
11:00−3ссв673399 0.0 10341808
14:00−1с6729100 0.0 10332249
17:00−1с5732100 0.0 10332105
20:00−3ссв224366 0.0 103437
20 апреля, вт
вт2023:00−4ссв23465 0.0 103549
02:00−4с22460 0.0 103542
05:00−4сз22455 0.0 103541
08:00−2зсз35335 0.0 1035854
11:00+2зсз45285 0.0 10341356
14:00+5зсз683115 0.0 10311742
17:00+6зсз793782 0.0 10291706
20:00+4з5114914 0.0 1028249
21 апреля, ср
ср2123:00+2з512637 0.0 1028223
02:00+2зсз513675 0.0 1027242
05:00+1зсз5127234 0.0 1028226
08:00+5сз610645 0.0 1028447
11:00+9ссз695310 0.0 10291312
14:00+7ссв7863100 0.0 1030969
17:00+7ссв6658100 0.0 10321345
20:00+5св356187 0.0 1035315